Flag for Germany Weather past 2 weeks in Geldern, North Rhine-Westphalia, Germany

Now
41 °F

Passing clouds.


Feels Like: 37 °F
Forecast: 36 / 48 °F
Wind: 6 mph from Northwest

Location: Niederrhein

Current Time: Mar 4, 2015 at 11:48:12 PM

Latest Report: Mar 4, 2015 at 11:20 PM


Visibility: N/A

Pressure: 30.48 "Hg

Humidity: 100%

Dew point: 41 °F

Location of GeldernLocation

Historic Weather in Geldern — Graph

°F

Geldern temperature yesterday

Maximum temperature yesterday: 45 °F (at 2:50 PM)
Minimum temperature yesterday: 36 °F (at 6:50 AM)
Average temperature yesterday: 40 °F

Past Weeks' High & Low Weather Summary

 TemperatureHumidityPressure
High52 °F (Mar 1, 11:20 AM)100% (Feb 17, 10:50 PM)30.74 "Hg (Feb 17, 10:50 PM)
Low27 °F (Feb 18, 4:50 AM)54% (Mar 2, 12:20 PM)29.33 "Hg (Feb 23, 2:20 PM)
Average41 °F95%29.90 "Hg
* Reported Feb 17 10:50 PM — Mar 4 10:20 PM, Geldern, Weather by CustomWeather, © 2015

Note: Actual official high and low records may vary slightly from our data, if they occured in-between our weather recording intervals... More about our weather records

Advertising

Geldern weather history for previous 24 hours

 ConditionsComfort  
Time TempWeatherWind HumidityBarometerVisibility
10:20 PM
Wed, Mar 4
41 °FPassing clouds.7 mph100%30.45 "HgN/A
9:50 PM41 °FPassing clouds.12 mph100%30.42 "HgN/A
9:20 PM41 °FPassing clouds.10 mph100%30.42 "HgN/A
8:50 PM41 °FPassing clouds.9 mph100%30.42 "HgN/A
8:20 PM41 °FPassing clouds.10 mph100%30.39 "HgN/A
7:50 PM41 °FPassing clouds.8 mph100%30.39 "HgN/A
7:20 PM41 °FPassing clouds.7 mph100%30.36 "HgN/A
6:50 PM41 °FScattered showers. Scattered clouds.9 mph100%30.36 "Hg5 mi
6:20 PM41 °FScattered showers. Scattered clouds.9 mph100%30.33 "HgN/A
5:50 PM41 °FLight rain. Partly sunny.12 mph100%30.33 "Hg6 mi
5:20 PM45 °FSprinkles. Scattered clouds.14 mph76%30.30 "HgN/A
4:50 PM45 °FScattered showers. Scattered clouds.13 mph81%30.30 "HgN/A
4:20 PM43 °FScattered clouds.16 mph93%30.30 "HgN/A
3:50 PM45 °FScattered clouds.16 mph93%30.27 "HgN/A
3:20 PM43 °FScattered clouds.17 mph100%30.27 "HgN/A
2:50 PM43 °FSprinkles. Partly sunny.13 mph100%30.27 "HgN/A
2:20 PM45 °FScattered showers. Partly sunny.20 mph87%30.27 "HgN/A
1:50 PM45 °FPartly sunny.15 mph81%30.27 "HgN/A
1:20 PM43 °FPartly sunny.18 mph87%30.27 "HgN/A
12:50 PM45 °FPartly sunny.17 mph87%30.24 "HgN/A
12:20 PM43 °FPartly sunny.16 mph93%30.24 "HgN/A
11:50 AM45 °FPartly sunny.17 mph87%30.24 "HgN/A
11:20 AM43 °FPartly sunny.22 mph93%30.21 "HgN/A
10:50 AM43 °FPartly sunny.22 mph93%30.21 "HgN/A
10:20 AM41 °FScattered clouds.18 mph100%30.21 "HgN/A
9:50 AM41 °FPassing clouds.14 mph100%30.18 "HgN/A
9:20 AM39 °FPassing clouds.12 mph100%30.18 "HgN/A
8:50 AM37 °FSunny.12 mph100%30.18 "Hg10 mi
8:20 AM36 °FSunny.8 mph100%30.18 "Hg10 mi
7:50 AM36 °FClear.9 mph100%30.15 "Hg10 mi
7:20 AM36 °FClear.12 mph100%30.15 "Hg10 mi
6:50 AM36 °FClear.13 mph100%30.15 "Hg10 mi
6:20 AM36 °FClear.12 mph100%30.15 "Hg10 mi
5:50 AM36 °FClear.12 mph100%30.15 "Hg10 mi
5:20 AM36 °FClear.10 mph100%30.12 "Hg10 mi
11:50 PM
Tue, Mar 3
39 °FClear.12 mph100%30.07 "Hg10 mi
11:20 PM39 °FClear.10 mph100%30.07 "Hg10 mi
Weather by CustomWeather, © 2015

See weather overviewHow to use our weather pages